This is the latest recevied weather packets stored in our database for station/object KK4MOR. If no packets are shown the sender has not sent any weather packets the latest 10 day(s).
| Time | Temp. | Humidity | Pressure | Rain* | Wind** | Luminosity | Snow |
|---|---|---|---|---|---|---|---|
| 1777201236 | 11.11° C | 97% | 1010.3 hPa | 0 mm | - | - | - |
| 1777200332 | 11.11° C | 97% | 1010.2 hPa | 0 mm | - | - | - |
| 1777199429 | 11.11° C | 97% | 1010.2 hPa | 0 mm | - | - | - |
| 1777198527 | 11.67° C | 97% | 1010.1 hPa | 0 mm | - | - | - |
| 1777197625 | 11.67° C | 97% | 1010.1 hPa | 0 mm | - | - | - |
| 1777196722 | 12.22° C | 97% | 1009.9 hPa | 0 mm | - | - | - |
| 1777195820 | 12.22° C | 97% | 1009.8 hPa | 0 mm | - | - | - |
| 1777194918 | 12.22° C | 97% | 1009.8 hPa | 0 mm | - | - | - |
| 1777194018 | 12.78° C | 97% | 1009.6 hPa | 0 mm | - | - | - |
| 1777193115 | 12.78° C | 97% | 1009.4 hPa | 0 mm | - | - | - |
| 1777192221 | 13.33° C | 97% | 1009.2 hPa | 0 mm | - | - | - |
| 1777191315 | 13.33° C | 97% | 1009 hPa | 0 mm | - | - | - |
| 1777190419 | 13.89° C | 98% | 1009 hPa | 0 mm | - | - | - |
| 1777189512 | 13.89° C | 98% | 1009 hPa | 0 mm | - | - | - |
| 1777188609 | 13.89° C | 98% | 1008.8 hPa | 0 mm | - | - | - |
| 1777187709 | 12.78° C | 98% | 1008.5 hPa | 0 mm | - | - | - |
| 1777186807 | 12.22° C | 97% | 1008.5 hPa | 0 mm | - | - | - |
| 1777185904 | 12.78° C | 97% | 1008.7 hPa | 0 mm | - | - | - |
| 1777185002 | 12.78° C | 97% | 1008.8 hPa | 0 mm | - | - | - |
| 1777184163 | 13.33° C | 98% | 1009.1 hPa | 0.25 mm | - | - | - |
| 1777183260 | 13.33° C | 97% | 1009.4 hPa | 0.25 mm | - | - | - |
| 1777182357 | 13.33° C | 97% | 1009.2 hPa | 0.25 mm | - | - | - |
| 1777181484 | 13.33° C | 97% | 1009.1 hPa | 0.25 mm | - | - | - |
| 1777180557 | 13.33° C | 97% | 1009.1 hPa | 0 mm | - | - | - |
| 1777179651 | 13.33° C | 97% | 1008.8 hPa | 0 mm | - | - | - |
* Rain latest hour (hover to see other rain measurements)
** Current wind speed in m/s (hover to see current wind gust speed)